Погода в Казани

Погода в Казани : погода сейчас, прогноз погоды и архив. Всё, что Вы хотите узнать о погоде в Казани!

Хотите узнать прогноз погоды в Казани? Тогда Вам сюда: Погода в Казани

Поиск расширенной информации на нашем сайте:

Другие новости

Новости СМИ2

Главная страница сайта

Новости сайта

03.07.2017

Напоминаем, что на нашем специализированном сайте Метеоцентр.Азия вы можете получить высокодетализированные автоматические прогнозы погоды по пунктам России, СНГ и мира в авиационном формате (включающие направление и скорость ветра, видимость, явления погоды, количество и форму облачности, нижнюю и верхнюю границу облачности).


Погода в Казани - сегодня

Время (UTC), дата Ветер
(°,м/с) 
Видим.   Явления Облачность Т
(°С)
Тd
(°С)
f(%) Тe
(°С)
Pmin
(гПа)
dP
(гПа)
Po
(мм)
O2
(г/м3)
Тmin Tmax R s Состояние
почвы
06 25.05.18 360 (С) 10 км    10/1 600 м верхняя 
[Sc|Cs]
+12.5 +3.8 55 +12  1019.1  1.4  754  290  +11.6         
09 25.05.18 360 (С) 4-10{11}  10 км    9/1 1000 м средняя, верхняя 
[Sc|Ac As|Cs]
+12.3 -2.3 36 +12  1020.5  1.3  755  291           
12 25.05.18 350 (С) 3{11}  10 км    9/9 600 м 
[Sc]
+12.2 -4.7 30 +12  1021.5  1.1  755  292           
15 25.05.18 360 (С) 3{12}  10 км    8/8 1000 м 
[Sc]
+11.6 -4.9 31 +11  1022.7  1.1  756  293    +13.4       
18 25.05.18 360 (С) 2{10}  10 км    8/4 600 м средняя, верхняя 
[Sc|Ac lent|Cc]
+9.3 -2.2 44 +9  1024.9  2.1  758  296           
21 25.05.18 350 (С) 10 км    ясно 
+6.5 -2.2 54 +6  1026.2  1.1  759  299           
00 26.05.18 360 (С) 10 км    ясно 
+4.5 -2.1 62 +4  1028.1  1.8  760  301           
03 26.05.18 020 (С) 3-10  10 км    ясно 
+5.2 -2.9 56 +4  1030.1  1.9  761  301  +3.7        сухая 
06 26.05.18 010 (С) 4{12}  10 км    ясно 
+8.2 -7.3 33 +7  1031.1  1.2  762  299           
09 26.05.18 350 (С) 4{11}  10 км    ясно 
+11.9 -6.1 28 +11  1030.8  -0.2  762  295           
12 26.05.18 350 (С) 3-12{12}  10 км    ясно 
+14.6 -5.1 25 +15  1029.7  -0.9  761  292           
15 26.05.18 330 (СЗ) 2{12}  10 км    ясно 
+14.9 -3.8 27 +16  1028.7  -1  761  291    +15.3       
18 26.05.18 тихо ()   10 км    ясно 
+10.6 +0.5 50 +11  1029.3  0.4  761  295           
21 26.05.18 220 (ЮЗ) 10 км    н/о 
+9.1 +2.2 62 +10  1029  -0.3  761  296           
00 27.05.18 250 (З) 10 км    5/0 верхняя 
[Cs]
+9.4 +0 52 +10  1028.1  -1  760  296           
03 27.05.18 240 (ЮЗ) 10 км    3/0 верхняя 
[Ci fib]
+11.9 +1.4 49 +12  1026.5  -1.3  759  293  +7.9        сухая 
06 27.05.18 250 (З) 5-10  10 км    4/3 600 м средняя, верхняя 
[Sc|Ac lent|Cc]
+17.4 +3 38 +17  1023.8  -2.4  757  286           
09 27.05.18 260 (З) 4-12{12}  10 км    8/3 600 м средняя, верхняя 
[Cu Sc|Ac cast|Ci]
+20.6 +5.4 37 +21  1021.2  -2.3  755  282           
12 27.05.18 260 (З) 5-12{15}  10 км    10/4 600 м средняя, верхняя 
[Sc|Ac lent|Cc]
+20.9 +4.2 33 +21  1017.9  -3.3  753  281           
15 27.05.18 260 (З) 4-10{14}  10 км    10/3 600 м средняя, верхняя 
[Sc|Ac lent|Cc]
+20.3 +4.2 35 +20  1015.1  -2.8  751  281    +21.9       
18 27.05.18 340 (С) 3{11}  10 км    10/10 300 м кучево-дожд. 
[Cb cap]
+13.3 +9.1 76 +13  1014.7  -0.8  750  287           
21 27.05.18 350 (С) 10 км  слаб. ливневой дождь  10/10 300 м кучево-дожд. 
[Cb cap]
+9.8 +8 89 +9  1015.1  0.3  751  291           
00 28.05.18 310 (СЗ) 10 км  {ливн. осадки, дождь}  10/8 300 м кучево-дожд., средняя 
[Cb cap|As op]
+9.6 +7.8 89 +9  1015.4  0.3  751  291           
03 28.05.18 350 (С) 10 км    3/0 средняя 
[Ac cast]
+8.9 +3.9 71 +8  1017.8  2.3  752  293  +8.6      влажная 
06 28.05.18 330 (СЗ) 10 км    6/6 1000 м 
[Cu med, cong]
+11.5 +1.7 51 +11  1019.2  1.5  754  291           
Время (UTC), дата Ветер
(°,м/с) 
Видим.   Явления Облачность Т
(°С)
Тd
(°С)
f(%) Тe
(°С)
Pmin
(гПа)
dP
(гПа)
Po
(мм)
O2
(г/м3)
Тmin Tmax R s Состояние
почвы

Для получения пояснительной информации подведите курсор к названию столбца.

ПОГОДА в Казани - архив

Всё, что Вы хотите узнать о погоде в Казани - удобно и подробно!

Выберите нужную дату (начиная с 1 января 2015* года) и нажмите кнопку "Найти".
Будут отображены архивные сводки погоды по пункту Казань, начиная с указанной даты.


Отображать данные в формате CSV (для использования в таблицах Excel)


Внимание! Наш архив погоды предназначен исключительно для личного некоммерческого использования в познавательных целях. Если Вам необходимы официальные справки о состоянии погоды (для производственных, юридических, коммерческих и т.п. целей), обращайтесь в органы Росгидромета.

*Примечание: данная дата относится к архиву по метеостанциям СССР (Россия, СНГ, Балтия).
Архив по метеостанциям Зарубежной Европы и Азии (кроме Китая) хранится 10 дней, по другим регионам земного шара (Китай, Африка, Америка, Австралия, Океания) - 1 день.

Казань - район местоположения метеостанции


Название, широта, долгота, высота метеостанции:
Казань 55.6°ш. 49.3°д. 116 м над ур. моря [Российская Федерация]

Дополнительная информация

В oтличие oт бoльшинства пoгoдных сайтoв мы публикуем пoдрoбную метеoинфoрмацию в детальнoм прoфессиoнальнoм фoрмате.

Характеристики температуры и влажнoсти вoздуха измеряются на высoте 2 м в тени вдали oт зданий и деревьев.
Скoрoсть ветра измеряется на высoте 10 м (на урoвне рoста челoвека скoрoсть ветра ниже в 1.5-2 раза). Если метеoстанция нахoдится в гoрoде или в лесу, тo скoрoсть ветра занижена на 2-4 м/с пo сравнению с oткрытым местoм. Скoрoсть ветра над акватoриями крупных рек и oзёр, а также на вершинах хoлмoв на 2-5 м/с выше, чем в oбычных услoвиях.
Атмoсфернoе давление в разных тoчках местнoсти мoжет значительнo oтличаться oт давления на метеoстанции, в зависимoсти oт услoвий рельефа (при пoдъёме на 10 м давление пoнижается примернo на 1 мм рт.ст.).